Wind_Speed
17 16 15 14 13 12 12 11 10 9 9 8 8 8 8 8 8 9 9 9 10 10 11 11 12 12 13 13 14 15 16 16 17 18 19 19 20 21 21 22 23 23 24
18 17 16 15 14 13 12 11 10 9 9 9 9 9 9 9 10 10 10 10 10 10 11 12 12 13 14 14 15 16 17 17 18 19 20 20 21 22 22 23 24 24 25
19 18 17 16 15 14 13 12 11 10 10 10 9 9 10 10 10 10 10 10 11 11 12 13 13 14 15 16 16 17 18 18 19 20 21 22 22 23 24 24 25 26 27
19 19 18 17 16 14 13 13 12 11 10 10 10 10 10 10 10 10 10 11 11 12 13 14 15 15 16 17 17 18 19 20 21 22 22 23 24 25 26 26 27 28 28
20 19 18 17 16 15 14 13 12 12 11 11 11 10 10 11 11 10 11 12 12 13 14 15 16 16 17 18 19 20 20 21 22 23 24 24 25 26 27 28 28 29 30
21 20 19 18 17 16 15 14 13 13 12 11 11 11 11 11 11 11 12 13 13 14 15 16 16 17 18 19 20 21 22 23 23 24 25 25 26 27 28 29 30 31 31
22 21 20 19 18 17 16 15 14 13 12 12 12 12 12 12 12 12 13 13 14 15 16 17 18 19 20 21 21 22 23 24 25 26 26 27 28 28 29 30 31 32 32
23 22 21 20 19 18 17 15 14 14 13 12 12 12 12 12 12 13 14 15 16 16 17 18 19 20 22 22 23 24 24 25 27 28 28 29 29 30 31 32 33 33 34
23 22 21 20 19 18 17 16 15 14 14 13 13 13 13 13 14 15 16 16 17 18 19 20 21 22 23 24 24 25 26 27 28 29 30 31 32 32 33 34 35 35 35
24 22 21 21 20 18 17 16 16 15 15 14 14 14 14 15 15 16 17 17 18 19 20 22 23 24 25 26 27 27 28 29 30 31 32 32 33 34 35 35 36 36 37
25 23 22 21 20 19 18 17 16 16 16 15 15 15 16 16 17 17 18 19 20 21 22 23 24 25 27 27 28 29 30 31 32 32 33 34 34 35 36 36 36 37 37
25 24 23 22 21 20 19 18 18 17 17 16 16 17 17 17 18 19 20 21 22 23 24 25 26 27 28 29 30 31 32 33 33 34 34 35 35 36 36 37 37 37 37
26 25 23 23 22 21 20 19 18 18 17 17 17 18 18 19 20 20 22 23 24 25 26 27 28 29 30 31 32 33 33 34 34 35 35 36 36 37 37 37 38 38 38
26 25 24 24 23 22 21 20 19 19 18 18 18 19 20 20 21 22 23 25 25 26 27 28 30 31 32 33 33 34 34 35 35 36 36 37 37 37 38 38 38 39 39
27 26 26 25 24 23 22 21 20 20 19 19 20 21 22 22 23 24 25 26 27 28 29 30 31 32 33 34 34 34 35 36 36 37 37 37 38 38 38 38 39 39 39
29 28 27 26 25 24 23 22 21 21 21 21 22 23 23 24 25 26 27 28 29 30 31 32 33 34 34 35 35 35 36 36 37 37 37 38 38 38 38 38 39 39 39
30 29 27 26 25 24 24 23 23 22 22 23 23 24 25 26 26 27 28 29 30 32 33 33 34 35 35 35 35 36 37 37 37 37 38 38 37 37 38 38 39 39 39
31 30 28 27 26 25 25 24 24 24 24 24 25 26 26 27 28 29 30 31 32 33 34 34 35 35 35 36 36 36 37 37 37 37 37 37 37 38 38 38 38 38 38
32 31 30 28 28 27 26 26 25 26 26 27 27 27 28 29 30 31 32 33 34 34 35 35 35 36 36 36 37 37 37 37 37 37 37 38 38 38 38 38 38 38 38
33 32 31 30 29 29 28 27 27 28 28 28 29 29 30 31 31 32 33 34 35 35 35 35 36 36 36 37 37 37 37 37 37 37 38 38 38 38 38 39 38 38 39
34 33 32 31 30 30 29 29 30 30 30 30 30 30 31 32 33 34 34 35 35 35 36 36 36 36 37 37 37 37 37 37 37 37 38 38 38 39 39 39 39 39 40
35 34 33 32 32 31 31 31 32 32 31 31 31 32 33 34 34 34 35 35 35 36 36 36 36 36 36 36 37 37 37 37 37 37 38 39 39 39 40 40 40 41 41
36 35 34 34 33 33 33 33 33 33 33 33 33 34 34 35 35 35 35 35 35 36 36 36 36 36 36 36 36 37 37 37 38 38 38 39 40 40 41 41 41 42 43
37 36 35 35 34 34 34 34 34 34 34 34 35 35 35 35 35 35 35 35 35 36 36 36 36 36 36 36 36 37 37 38 38 38 39 40 41 41 42 42 43 44 44
39 38 36 36 35 35 35 35 35 35 35 36 36 36 36 35 35 36 36 35 36 36 36 36 36 36 36 36 36 37 37 38 39 40 40 41 42 43 43 44 45 46 46
40 39 38 37 36 36 36 36 36 36 36 36 36 36 36 36 36 36 36 35 36 36 36 36 35 35 36 36 36 37 38 39 40 41 41 42 43 44 45 46 47 48 48
Wind_Direction
222 222 223 223 223 225 228 231 234 241 249 256 263 272 280 283 287 291 294 296 298 301 303 304 304 304 304 303 302 301 301 300 299 298 297 296 295 293 292 290 289 288 287
223 223 223 223 225 227 229 231 236 244 250 257 265 273 279 283 286 291 294 296 299 301 303 304 305 305 305 305 304 303 302 301 300 299 298 297 296 295 293 292 291 290 288
224 224 223 225 227 229 231 234 239 244 251 259 266 272 278 281 285 289 291 295 298 301 303 304 304 304 304 303 303 303 302 301 300 299 298 297 296 295 294 293 292 290 289
226 224 224 226 229 231 232 235 240 246 253 259 265 271 276 281 285 287 290 294 298 301 302 303 304 304 303 303 302 302 302 301 301 300 299 298 296 295 294 293 292 291 290
227 225 226 227 230 231 234 237 241 247 253 259 265 270 275 281 283 286 290 293 296 298 301 303 303 304 303 303 302 302 302 301 301 301 300 299 297 296 295 294 293 292 291
226 226 228 229 229 231 235 238 242 246 252 257 263 269 276 279 282 285 289 293 297 299 301 302 303 303 303 303 303 302 302 302 302 301 300 299 298 297 296 295 294 293 291
224 225 228 229 229 232 235 239 242 246 251 257 263 270 276 278 281 286 290 294 297 299 300 302 303 304 304 304 303 303 302 302 302 301 301 299 298 297 296 295 294 293 291
224 225 227 229 229 233 235 238 241 245 251 257 263 271 275 277 281 286 290 294 297 299 300 302 303 304 305 305 304 304 303 302 302 301 300 299 298 297 297 296 295 294 292
224 225 226 228 229 231 234 237 240 244 251 258 266 271 274 278 282 287 291 295 297 299 299 301 302 304 304 305 304 303 303 302 302 302 301 300 299 298 298 297 296 294 293
223 224 225 226 228 230 233 236 240 246 253 261 266 270 276 280 284 288 291 294 296 298 299 301 302 303 304 304 304 303 302 302 302 301 301 300 299 298 298 297 296 295 294
222 224 225 225 228 230 233 237 242 249 256 262 265 271 277 281 284 288 291 294 296 298 299 301 302 303 303 303 303 303 302 302 302 301 301 301 300 299 299 298 297 296 295
220 222 223 224 227 230 234 239 245 252 258 261 266 272 277 282 285 289 291 295 297 299 300 301 302 302 303 303 303 303 303 303 302 302 302 301 301 300 300 299 298 297 296
219 221 222 224 227 230 235 242 248 252 257 262 267 273 278 283 286 289 292 295 297 299 300 301 302 302 303 303 303 303 303 303 303 303 303 302 302 301 301 300 299 298 298
218 220 222 225 228 232 238 244 247 251 257 264 270 275 280 283 286 289 292 295 296 298 299 300 302 302 303 303 303 302 303 303 303 303 303 303 303 302 302 301 300 299 298
219 221 223 227 230 234 239 243 247 252 258 265 271 276 280 283 286 289 292 294 296 298 299 300 302 303 303 303 303 303 303 304 304 304 304 304 303 303 302 302 301 300 299
221 223 225 229 232 236 240 244 249 254 260 266 272 277 280 283 286 289 292 295 296 298 299 300 301 302 303 304 304 303 304 304 305 305 305 305 304 304 303 303 302 302 300
223 225 227 230 233 237 242 246 250 255 260 266 272 276 280 283 286 289 292 294 296 298 300 300 301 302 303 304 304 304 305 305 305 305 305 305 305 305 304 304 304 303 302
224 227 229 232 235 239 243 247 252 256 262 267 272 275 279 282 286 289 292 294 296 298 299 300 301 303 303 304 305 305 305 306 306 306 306 306 306 306 306 305 305 304 303
226 229 232 234 237 241 245 249 253 258 263 268 272 275 279 282 286 288 291 294 297 298 299 300 301 303 304 304 305 305 306 306 306 306 306 306 306 306 306 306 305 304 303
228 231 234 237 240 243 247 251 255 260 264 268 272 275 279 283 286 288 291 295 297 298 298 299 301 302 303 304 304 305 305 305 306 306 306 306 306 306 306 306 306 305 304
230 232 235 238 242 245 249 253 257 261 265 269 272 276 280 283 286 288 292 295 296 297 298 299 301 302 303 303 304 304 305 305 305 306 306 306 306 306 306 306 306 305 305
230 233 237 240 243 246 250 254 258 262 266 270 273 276 279 282 286 289 291 293 295 296 297 299 301 301 302 303 303 304 304 305 305 305 306 306 306 306 306 306 306 305 306
232 235 238 241 244 247 252 255 259 262 266 270 273 276 279 282 286 288 290 292 294 295 297 299 300 300 301 302 303 304 304 305 305 305 305 305 306 306 306 305 305 305 305
232 235 238 242 245 249 253 257 260 263 266 270 273 276 279 282 285 287 290 291 293 295 296 298 299 300 300 301 302 303 304 304 304 305 305 306 306 305 305 305 305 305 305
233 236 239 242 246 250 254 258 260 263 267 270 273 276 279 282 284 287 289 291 292 294 295 297 298 299 300 301 302 303 303 304 304 305 305 306 305 305 305 305 305 305 305
234 237 240 243 247 251 254 257 261 264 268 270 273 275 278 281 284 286 288 290 292 293 295 296 297 298 300 301 301 302 303 303 303 304 305 305 305 305 305 305 305 305 304
Height
5878 5879 5880 5881 5882 5883 5883 5884 5884 5885 5885 5885 5885 5885 5885 5885 5884 5883 5883 5882 5881 5880 5879 5878 5877 5876 5874 5873 5872 5871 5870 5868 5867 5865 5864 5862 5860 5859 5857 5856 5854 5853 5851
5876 5877 5878 5879 5880 5881 5882 5882 5883 5883 5884 5884 5884 5884 5883 5883 5882 5882 5881 5880 5879 5878 5877 5876 5875 5873 5872 5871 5870 5868 5867 5865 5864 5862 5861 5859 5857 5856 5854 5852 5850 5849 5847
5874 5875 5876 5877 5878 5879 5880 5881 5881 5882 5882 5882 5882 5882 5882 5881 5881 5880 5879 5878 5877 5876 5875 5874 5872 5871 5870 5869 5867 5866 5864 5862 5861 5859 5857 5856 5854 5852 5850 5848 5846 5845 5843
5871 5872 5874 5875 5876 5877 5878 5879 5880 5880 5880 5880 5880 5880 5880 5879 5879 5878 5877 5876 5875 5874 5873 5871 5870 5869 5867 5866 5864 5863 5861 5859 5858 5856 5854 5852 5850 5848 5846 5844 5842 5840 5838
5868 5870 5872 5873 5874 5875 5876 5877 5878 5878 5878 5878 5878 5878 5878 5878 5877 5876 5875 5874 5873 5872 5870 5869 5868 5866 5865 5863 5861 5860 5858 5856 5854 5852 5850 5848 5846 5844 5842 5839 5837 5835 5833
5865 5867 5869 5870 5872 5873 5874 5875 5875 5876 5876 5876 5876 5876 5876 5875 5875 5874 5873 5872 5871 5869 5868 5866 5865 5863 5862 5860 5858 5856 5854 5852 5850 5848 5845 5843 5841 5839 5837 5834 5832 5830 5828
5862 5864 5866 5867 5869 5870 5871 5872 5873 5874 5874 5874 5874 5874 5874 5873 5872 5872 5871 5869 5868 5867 5865 5864 5862 5860 5858 5856 5854 5852 5850 5848 5845 5843 5841 5838 5836 5834 5831 5829 5827 5824 5822
5859 5861 5863 5864 5866 5867 5869 5870 5870 5871 5871 5872 5872 5872 5871 5871 5870 5869 5868 5867 5865 5864 5862 5860 5858 5856 5854 5852 5850 5848 5846 5843 5841 5838 5836 5833 5831 5828 5826 5823 5820 5818 5815
5856 5858 5860 5861 5863 5864 5866 5867 5868 5868 5869 5869 5869 5869 5868 5868 5867 5866 5865 5864 5862 5860 5859 5857 5855 5853 5850 5848 5846 5844 5841 5839 5836 5833 5831 5828 5825 5823 5820 5817 5814 5811 5808
5852 5854 5856 5858 5860 5861 5862 5864 5865 5865 5866 5866 5866 5866 5865 5865 5864 5863 5861 5860 5859 5857 5855 5853 5851 5849 5846 5844 5841 5839 5836 5833 5831 5828 5825 5822 5819 5816 5813 5810 5807 5804 5801
5849 5851 5853 5855 5856 5858 5859 5861 5862 5862 5863 5863 5863 5862 5862 5861 5860 5859 5858 5856 5855 5853 5851 5849 5846 5844 5842 5839 5836 5834 5831 5828 5825 5822 5819 5816 5813 5810 5807 5803 5800 5797 5794
5845 5847 5849 5851 5853 5855 5856 5857 5858 5859 5859 5860 5859 5859 5858 5858 5857 5855 5854 5852 5851 5849 5847 5844 5842 5839 5837 5834 5831 5828 5825 5822 5819 5816 5813 5810 5806 5803 5800 5796 5793 5790 5787
5840 5843 5845 5847 5849 5851 5853 5854 5855 5855 5856 5856 5856 5855 5855 5854 5853 5851 5850 5848 5846 5844 5842 5840 5837 5834 5832 5829 5826 5823 5820 5816 5813 5810 5807 5803 5800 5797 5793 5789 5786 5782 5779
5836 5839 5841 5843 5845 5847 5849 5850 5851 5852 5852 5852 5852 5851 5851 5850 5849 5847 5846 5844 5842 5839 5837 5835 5832 5829 5826 5823 5820 5817 5813 5810 5807 5803 5800 5797 5793 5789 5786 5782 5778 5775 5771
5832 5834 5837 5839 5841 5843 5844 5846 5847 5847 5848 5848 5848 5847 5846 5845 5844 5843 5841 5839 5837 5835 5832 5829 5826 5823 5820 5817 5814 5810 5807 5804 5800 5797 5793 5790 5786 5782 5778 5775 5771 5767 5764
5827 5829 5832 5834 5837 5838 5840 5841 5842 5843 5843 5843 5843 5843 5842 5841 5840 5838 5836 5834 5832 5829 5827 5824 5821 5818 5814 5811 5808 5804 5801 5797 5793 5790 5786 5782 5779 5775 5771 5767 5763 5759 5756
5821 5824 5827 5830 5832 5834 5835 5836 5837 5838 5838 5839 5838 5838 5837 5836 5834 5833 5831 5829 5826 5824 5821 5818 5815 5812 5808 5805 5801 5798 5794 5790 5787 5783 5779 5775 5771 5768 5764 5760 5756 5752 5748
5816 5819 5822 5824 5827 5828 5830 5831 5832 5833 5833 5833 5833 5832 5831 5830 5829 5827 5825 5823 5820 5818 5815 5812 5809 5806 5802 5799 5795 5791 5788 5784 5780 5776 5772 5768 5764 5760 5756 5752 5748 5744 5740
5810 5813 5816 5819 5821 5823 5825 5826 5827 5828 5828 5828 5828 5827 5826 5825 5823 5821 5819 5817 5814 5812 5809 5806 5803 5799 5796 5792 5788 5785 5781 5777 5773 5769 5765 5761 5757 5753 5749 5745 5741 5737 5733
5804 5807 5810 5813 5815 5817 5819 5821 5822 5822 5822 5822 5822 5821 5820 5819 5817 5815 5813 5811 5808 5805 5802 5799 5796 5793 5789 5786 5782 5778 5774 5770 5766 5762 5758 5754 5750 5746 5742 5737 5733 5729 5725
5798 5801 5804 5807 5809 5811 5813 5815 5815 5816 5816 5816 5815 5814 5813 5812 5810 5809 5807 5804 5801 5799 5796 5793 5790 5786 5783 5779 5775 5771 5767 5763 5759 5755 5751 5747 5743 5738 5734 5730 5726 5721 5717
5791 5795 5798 5801 5803 5805 5807 5808 5809 5809 5809 5809 5809 5808 5807 5805 5804 5802 5800 5797 5795 5792 5789 5786 5783 5779 5776 5772 5768 5764 5761 5757 5753 5748 5744 5740 5735 5731 5726 5722 5718 5713 5709
5785 5788 5791 5794 5796 5798 5799 5800 5801 5802 5802 5802 5802 5801 5799 5798 5796 5795 5792 5790 5788 5785 5782 5779 5776 5772 5769 5765 5761 5758 5753 5750 5746 5742 5737 5732 5728 5723 5719 5714 5709 5705 5700
5778 5781 5784 5786 5788 5790 5792 5793 5794 5795 5795 5795 5794 5793 5792 5791 5789 5787 5785 5783 5780 5778 5775 5772 5768 5765 5762 5758 5754 5750 5746 5742 5738 5734 5730 5725 5720 5715 5710 5706 5701 5696 5691
5770 5773 5776 5778 5781 5783 5784 5786 5787 5787 5787 5787 5786 5785 5784 5783 5782 5780 5778 5775 5773 5770 5767 5764 5761 5758 5754 5751 5747 5743 5739 5734 5730 5726 5722 5717 5712 5707 5701 5696 5691 5686 5681
5762 5765 5768 5771 5773 5775 5777 5778 5779 5779 5779 5779 5778 5777 5776 5775 5774 5772 5770 5768 5765 5763 5760 5757 5754 5750 5747 5743 5739 5735 5731 5727 5722 5718 5713 5708 5704 5698 5693 5687 5681 5676 5670